[[{"header":{"parameterUnit":"m.s-1","parameterCategory":1,"la1":30.2992,"la2":30.254,"lo1":-89.0895,"lo2":-89.0443,"dy":0.0025,"dx":0.0025,"nx":19,"ny":19,"refTime":"2026-04-23T09:00:00:Z","depth":0,"parameterNumber":2,"parameterNumberName":"U-component_of_WINDS"},"data":[0,0,0,-5.1174,-5.1178,-5.1377,-5.1378,-5.1626,-5.1628,0,0,0,0,0,0,0,0,0,0,0,-5.1112,-5.1114,-5.1173,-5.1178,-5.1377,-5.1378,-5.1626,-5.1628,0,0,0,0,0,0,0,0,0,0,0,-5.1111,-5.1113,-5.1115,-5.1179,-5.1377,-5.1378,-5.1625,-5.1477,0,0,0,0,0,0,0,0,0,0,-5.1285,-5.1225,-5.1113,-5.1115,-5.118,-5.1377,-5.1378,-5.147,-5.1486,-5.1534,0,-5.1576,0,-5.1607,-5.1645,-5.1646,0,0,0,-5.118,-5.1211,-5.1268,-5.1116,-5.1182,-5.1377,-5.1288,-5.1479,-5.1498,-5.1555,-5.158,-5.1589,-5.1611,-5.1646,-5.1648,-5.1921,-5.1922,0,0,-5.1169,-5.1146,-5.1255,-5.128,-5.1251,-5.1281,-5.1294,-5.149,-5.1515,-5.1581,-5.1595,-5.1615,-5.1648,-5.165,-5.192,-5.1922,0,0,0,-5.1136,-5.1138,-5.119,-5.127,-5.1306,-5.1287,-5.1302,-5.1506,-5.1525,-5.1598,-5.1618,-5.1649,-5.1652,-5.1919,-5.1921,-5.1958,0,0,0,-5.113,-5.1119,-5.1185,-5.1173,-5.1303,-5.1409,-5.1313,-5.1512,-5.1535,-5.1617,-5.165,-5.1655,-5.1918,-5.192,-5.1954,-5.1977,0,0,0,-5.11,-5.1116,-5.1144,-5.1171,-5.1256,-5.1406,-5.1437,-5.1517,-5.1547,-5.1646,-5.1655,-5.1917,-5.192,-5.195,-5.1971,-5.2041,0,0,0,-5.1061,-5.1172,-5.1144,-5.1277,-5.1255,-5.1429,-5.1436,-5.1567,-5.1656,-5.1651,-5.1918,-5.1921,-5.1949,-5.1968,-5.2038,-5.2094,-5.2116,0,0,-5.1188,-5.1187,-5.1267,-5.1248,-5.1421,-5.1401,-5.158,-5.1683,-5.1713,-5.185,-5.1857,-5.1955,-5.1971,-5.2041,-5.2254,-5.2271,0,0,0,-5.1299,-5.1356,-5.1408,-5.1493,-5.1577,-5.165,-5.1729,-5.1768,-5.1886,-5.1779,-5.2002,-5.2012,-5.2054,-5.2081,-5.2096,-5.2132,-5.1933,-5.1933,-5.1933,-5.1443,-5.1478,-5.1613,-5.1673,-5.1757,-5.1839,-5.1909,-5.1975,-5.1984,-5.2037,-5.2076,-5.2201,-5.2233,-5.2244,-5.2282,-5.2112,-5.2112,-5.2112,-5.2112,-5.163,-5.1715,-5.173,-5.1865,-5.1902,-5.2016,-5.2101,-5.2105,-5.2215,-5.2174,-5.2212,-5.2161,-5.2262,-5.2297,-5.2115,-5.2115,-5.2114,-5.2114,-5.2114,-5.1725,-5.1772,-5.182,-5.195,-5.2046,-5.2104,-5.221,-5.2241,-5.2269,-5.2308,-5.2352,-5.2351,-5.2352,-5.2328,-5.2328,-5.2329,-5.2329,-5.2329,-5.233,-5.1802,-5.1855,-5.1942,-5.2044,-5.2104,-5.2188,-5.2275,-5.2335,-5.2409,-5.2422,-5.2422,-5.2425,-5.2268,-5.2225,-5.2336,-5.2335,-5.2334,-5.2334,-5.2333,-5.1971,-5.1939,-5.2072,-5.2134,-5.2257,-5.235,-5.239,-5.251,-5.2565,-5.2616,-5.2614,-5.2494,-5.2492,-5.2481,-5.2446,-5.2607,-5.2607,-5.2607,-5.2607,-5.2048,-5.2053,-5.2197,-5.2293,-5.2391,-5.2442,-5.2591,-5.2662,-5.2729,-5.2765,-5.2748,-5.2705,-5.2692,-5.2699,-5.2683,-5.265,-5.286,-5.286,-5.286,-5.2153,-5.217,-5.229,-5.2359,-5.2459,-5.2543,-5.2685,-5.2793,-5.2864,-5.2871,-5.2793,-5.2783,-5.2715,-5.2691,-5.269,-5.2664,-5.2605,0,0]},{"header":{"parameterUnit":"m.s-1","parameterCategory":1,"la1":30.2992,"la2":30.254,"lo1":-89.0895,"lo2":-89.0443,"dy":0.0025,"dx":0.0025,"nx":19,"ny":19,"refTime":"2026-04-23T09:00:00:Z","depth":0,"parameterNumber":3,"parameterNumberName":"V-component_of_WINDS"},"data":[0,0,0,3.6015,3.6017,3.6137,3.6137,3.6263,3.6263,0,0,0,0,0,0,0,0,0,0,0,3.596,3.5961,3.6015,3.6017,3.6137,3.6138,3.6262,3.6263,0,0,0,0,0,0,0,0,0,0,0,3.596,3.5961,3.5961,3.6017,3.6137,3.6138,3.6262,3.6182,0,0,0,0,0,0,0,0,0,0,3.6071,3.6002,3.5961,3.5961,3.6018,3.6136,3.6138,3.6179,3.6187,3.6196,0,3.6197,0,3.6232,3.627,3.627,0,0,0,3.6031,3.5994,3.6044,3.5961,3.6019,3.6136,3.6087,3.6184,3.6193,3.6207,3.6199,3.6205,3.6234,3.627,3.6271,3.6273,3.6272,0,0,3.6025,3.5972,3.6037,3.6049,3.6027,3.6083,3.609,3.619,3.6179,3.62,3.6208,3.6236,3.6271,3.6272,3.6273,3.6272,0,0,0,3.5996,3.5967,3.6015,3.6043,3.6067,3.6086,3.6095,3.6174,3.6194,3.621,3.6238,3.6272,3.6273,3.6274,3.6273,3.6189,0,0,0,3.5993,3.595,3.6011,3.598,3.6064,3.6122,3.6076,3.6187,3.62,3.6237,3.6272,3.6274,3.6275,3.6273,3.6193,3.6158,0,0,0,3.5959,3.5947,3.5957,3.5977,3.6026,3.6121,3.6147,3.6191,3.6217,3.627,3.6274,3.6275,3.6274,3.6197,3.6164,3.6144,0,0,0,3.5908,3.588,3.5955,3.5935,3.6025,3.6068,3.6147,3.6183,3.6219,3.6272,3.6275,3.6273,3.6198,3.6168,3.6148,3.6118,3.61,0,0,3.5843,3.587,3.5863,3.5934,3.5951,3.6054,3.606,3.6143,3.6197,3.6245,3.6245,3.6192,3.6165,3.6145,3.6021,3.6006,0,0,0,3.5825,3.5819,3.5835,3.5867,3.593,3.5983,3.6071,3.6103,3.6146,3.621,3.6181,3.6167,3.6157,3.6145,3.6133,3.6129,3.6265,3.6265,3.6266,3.5656,3.5728,3.5722,3.5808,3.5838,3.5931,3.5964,3.6022,3.6084,3.6076,3.609,3.6006,3.599,3.5982,3.5977,3.6081,3.6081,3.608,3.608,3.5569,3.5572,3.5658,3.5682,3.5759,3.5781,3.5871,3.5915,3.5948,3.6001,3.5996,3.6047,3.5964,3.5963,3.6075,3.6075,3.6076,3.6077,3.6077,3.5466,3.548,3.552,3.5576,3.5612,3.5702,3.5731,3.58,3.5865,3.586,3.5884,3.5886,3.5896,3.5867,3.5867,3.5866,3.5866,3.5866,3.5866,3.5343,3.5391,3.5406,3.5473,3.5505,3.5556,3.5652,3.5685,3.5741,3.5789,3.5789,3.5853,3.5942,3.5963,3.5861,3.5862,3.5863,3.5863,3.5863,3.5226,3.5265,3.5287,3.5319,3.5406,3.5439,3.5528,3.5592,3.563,3.5642,3.5709,3.5764,3.5796,3.5806,3.5824,3.5692,3.5692,3.5692,3.5692,3.5139,3.5163,3.5204,3.5251,3.5305,3.5389,3.5416,3.5492,3.5577,3.5606,3.5635,3.5665,3.5672,3.5701,3.5713,3.5731,3.5579,3.5579,3.5579,3.5072,3.5106,3.5113,3.5196,3.5271,3.5334,3.5362,3.5415,3.5519,3.5576,3.563,3.5635,3.5684,3.5696,3.5751,3.5769,3.5803,0,0]}]]